Regional Weather Roundup
Issued by NWS Green Bay, WI

Home | Current Version | Previous Version | Graphics & Text | Print | Product List | Glossary Off
Versions: 1 2 3 4 5 6 7 8 9 10 11 12 13 14 15 16 17 18 19 20 21 22 23 24 25 26 27 28 29 30 31 32 33 34 35 36 37 38 39 40 41 42 43 44 45 46 47 48 49 50

000
ASUS43 KGRB 170910
RWRGRB

NORTH-CENTRAL AND NORTHEAST WISCONSIN REGIONAL WEATHER ROUNDUP
NATIONAL WEATHER SERVICE GREEN BAY WI
400 AM CDT WED SEP 17 2014

WIZ005-009-010>012-018-019-171000-
NORTH CENTRAL WISCONSIN

CITY           SKY/WX    TMP DP  RH WIND       PRES   REMARKS
IRONWOOD       CLEAR     50  43  76 SW7       29.93R
MANITOWISH WTR CLEAR     44  42  92 SW3       29.95F
ARBOR VITAE    CLEAR     39  37  92 CALM      29.97F
EAGLE RIVER    PTCLDY    42  41  97 CALM      29.96F
LAND O LAKES   PTCLDY    44  42  93 CALM      29.97S
RHINELANDER    CLEAR     41  40  96 W3        29.99F
PHILLIPS       CLEAR     39  37  94 CALM      29.98F
ANTIGO         CLEAR     38  38  98 CALM      30.01S
TOMAHAWK       CLEAR     34  33  96 CALM      30.00S
MERRILL        MOCLDY    34  34 100 CALM      30.00S FOG
$$

WIZ013-073-171000-
NORTHEAST WISCONSIN

CITY           SKY/WX    TMP DP  RH WIND       PRES   REMARKS
IRON MOUNTAIN  CLOUDY    50  43  77 CALM      29.94F
MARINETTE      CLEAR     46  43  87 W5        29.98S
OCONTO         CLEAR     43  43 100 CALM      29.99F
$$

WIZ017-030-035>037-045-171000-
CENTRAL WISCONSIN

CITY           SKY/WX    TMP DP  RH WIND       PRES   REMARKS
MEDFORD        CLEAR     40  39  97 S3        30.00S
WAUSAU         CLEAR     42  41  96 E5        30.00F
MOSINEE        CLEAR     39  39 100 CALM      30.01F
MARSHFIELD     CLEAR     43  41  93 CALM      30.00F
WISC RAPIDS    CLEAR     40  39  97 CALM      30.03S FOG
STEVENS POINT  CLEAR     37  36  97 CALM      30.02F
WAUPACA        CLEAR     42  40  95 CALM      30.02F
SHAWANO        CLEAR     45  43  93 CALM      30.01F
CLINTONVILLE   CLEAR     41  37  87 CALM      30.01F
$$

WIZ038-039-048-051-171000-
FOX VALLEY

CITY           SKY/WX    TMP DP  RH WIND       PRES   REMARKS
NWS GREEN BAY  CLEAR     44  43  96 CALM      30.01F
APPLETON       NOT AVBL
OSHKOSH        CLEAR     43  41  93 S6        30.02F
FOND DU LAC    CLEAR     44  40  85 SW3       30.03F
$$

WIZ022-050-052-171000-
EAST CENTRAL WISCONSIN

CITY           SKY/WX    TMP DP  RH WIND       PRES   REMARKS
STURGEON BAY   CLEAR     48  45  87 SW6       30.00F
MANITOWOC      CLEAR     49  45  86 W6        30.02F
SHEBOYGAN      CLEAR     41  39  93 SW5       30.03F
$$

LMZ563-521-522-541>543-171000-
LAKESHORE

STATION/POSITION TIME  TEMP    WIND        PRES    VSBY  WAVE
                       AIR SEA DIR/SP/G                  HT/PER
                 (UTC) (F)     (DEG/KT/KT) (MB)    (MI)  (FT/S)
SHEBOYGAN LKSHOR 0900   49 50  230/  6/  7 1017.2F
KEWAUNEE LKSHORE 0900   48     300/  5/  6 1015.2S
NORTHPORT PIER   0900   54     280/  5/  8 1014.9F
N MID LAKE BUOY  0900   57 57  260/ 10/ 12 1014.8F         2/ 5
CHAMBERS ISLAND  0900   52     210/  4/  6 1015.6S
MENOMINEE LKSHOR 0900   51     250/  6/  9 1015.9S
$$



USA.gov is the U.S. government's official web portal to all federal, state and local government web resources and services.